Weather in Namlea

Indonesia     3°15′19″S   127°03′59″E
temp.,
°C
wind,
m/s
gust,
m/s
humid.,
%
clouds,
%
prec.,
mm/h
press.,
hPa
HPBL,
m
17 may, mon
mon1700:00+24ssw249022 0.0 1009129
03:00+23ssw239193 0.0 100880
06:00+23ssw229410 0.0 100868
09:00+27sse2478100 0.0 1010655
12:00+28sse3578100 1.4 1008816
15:00+29sse347078 2.6 1006989
18:00+26s2489100 2.2 1008128
21:00+24ssw2395100 3.0 1010101
18 may, tue
tue1800:00+24ssw2495100 0.2 1009118
03:00+24ssw2395100 0.9 100875
06:00+24s1197100 2.8 100944
09:00+24ssw129597 4.4 1011107
12:00+28sse237994 1.3 1009544
15:00+26ese2287100 3.4 1006153
18:00+24ssw2296100 2.2 100776
21:00+24ssw2396100 2.4 100982
19 may, wed
wed1900:00+24sw2296100 0.2 100971
03:00+24ssw2396100 0.3 100886
06:00+23ssw2497100 0.3 1008121
09:00+26ssw2488100 0.9 1010365
12:00+28sse3481100 1.8 1008722
15:00+29sse2475100 2.6 1006843
18:00+27sse2285100 0.2 100789
21:00+24ssw229345 0.3 100972
20 may, thu
thu2000:00+23ssw229647 0.1 100963
03:00+24ssw2295100 0.2 100866
06:00+23ssw2296100 0.1 100968
09:00+27s237983 0.1 1010524
12:00+28e2275100 0.7 1008515
15:00+29sse017346 3.1 1007655
18:00+26n118899 1.9 100831
21:00+24ssw1193100 3.1 101016
21 may, fri
fri2100:00+23sw2295100 0.4 101052
03:00+23sw2294100 1.1 100961
06:00+23sw2293100 0.1 100957
09:00+25ssw2487100 0.1 1010210
12:00+27sse2379100 0.4 1009261
15:00+27sse2483100 3.3 1007320
18:00+25sse2391100 2.9 100879
21:00+24s2295100 4.8 101058